Content
SEND FEEDBACK

Daily
Averages
Monthly
Summary
United States of America

CONWAY, SOUTH CAROLINA


Home > North America > United States > South Carolina
Elevation: 22 feet     Latitude: 33 50N     Longitude: 079 03W

WEATHER
 
SELECT A DAY
Number of Records: 129,054;   Date Range: 12/8/08 - 7/6/14
 
SHARE

PRINT THIS DATA

[ ← Previous Day ]
WEATHER ALMANAC - JANUARY 31, 2013
[ Next Day → ]
[ °C ]   °F
Weather ElementAverageHighLow
Temperature49 °F59 °F (12:35 am)37.4 °F (8:55 pm)
Dewpoint34.2 °F59 °F (12:35 am)23 °F (3:35 pm)
Humidity60.3 %100 % (12:35 am)30 % (3:35 pm)
Barometer29.92 in30.13 in (10:15 pm)29.67 in (12:35 am)
Wind Speed8.3 mph15 mph (5:35 am)
Wind Gust32.2 mph (12:35 am)
Weather ElementAverage
Visibility7.1 mi
Wind DirectionSSW (216.7 °)

Weather ElementTotal
Precipitation0.14 in
Heating Degree Days16.8 (Base 65)
Averaged from 66 records on January 31, 2013
WEATHER CONDITIONS BREAKOUT
WIND DIRECTION BREAKOUT
WEATHER BY HOUR - JANUARY 31, 2013
[ °C ]   °F
Local TimeTemperatureDewpointHumidityBarometerVisibilityWind DirectionWind SpeedGust SpeedPrecipitationEventsConditions
12:35 AM59.0 °F59.0 °F100 %29.67 in10.0 miWSW (240°)11.5 mph32.2 mph0.01 inRainRain
12:55 AM57.2 °F57.2 °F100 %29.69 in5.0 miWSW (250°)13.8 mph27.6 mph0.01 inRainLight Rain
1:15 AM55.4 °F55.4 °F100 %29.69 in5.0 miWSW (240°)13.8 mph25.3 mph0.02 inRainRain
1:35 AM53.6 °F53.6 °F100 %29.69 in7.0 miWSW (240°)11.5 mph25.3 mph0.03 inRainLight Rain
1:55 AM53.6 °F53.6 °F100 %29.69 in10.0 miWSW (240°)10.4 mph21.9 mph0.04 inRainLight Rain
2:15 AM51.8 °F51.8 °F100 %29.70 in10.0 miSW (230°)9.2 mph16.1 mph0.01 inRainLight Rain
2:35 AM51.8 °F48.2 °F88 %29.72 in7.0 miSW (230°)9.2 mph19.6 mph0.01 inOvercast
2:55 AM51.8 °F48.2 °F88 %29.72 in7.0 miWSW (240°)10.4 mph20.7 mph0.01 inOvercast
3:15 AM51.8 °F46.4 °F82 %29.72 in10.0 miWSW (240°)10.4 mph20.7 mphOvercast
3:35 AM51.8 °F46.4 °F82 %29.73 in7.0 miSW (230°)11.5 mph16.1 mphOvercast
3:55 AM51.8 °F46.4 °F82 %29.73 in7.0 miSW (230°)10.4 mph17.3 mphScattered Clouds
4:15 AM51.8 °F46.4 °F82 %29.73 in10.0 miSW (230°)11.5 mph18.4 mphScattered Clouds
4:35 AM51.8 °F48.2 °F88 %29.74 in7.0 miSW (230°)10.4 mph18.4 mphMostly Cloudy
4:55 AM51.8 °F48.2 °F88 %29.75 in10.0 miSW (230°)9.2 mph18.4 mphMostly Cloudy
5:15 AM51.8 °F48.2 °F88 %29.76 in10.0 miWSW (250°)8.1 mphMostly Cloudy
5:35 AM51.8 °F41.0 °F67 %29.78 in7.0 miWSW (240°)15.0 mph23.0 mphMostly Cloudy
5:55 AM50.0 °F35.6 °F58 %29.80 in7.0 miWSW (250°)12.7 mph25.3 mphScattered Clouds
6:15 AM48.2 °F35.6 °F62 %29.80 in7.0 miWSW (250°)10.4 mph18.4 mphClear
6:35 AM46.4 °F35.6 °F66 %29.83 in7.0 miWSW (240°)10.4 mphScattered Clouds
7:15 AM46.4 °F32.0 °F57 %29.86 in7.0 miWSW (250°)10.4 mph25.3 mphScattered Clouds
7:35 AM44.6 °F32.0 °F61 %29.88 in7.0 miWSW (250°)10.4 mph17.3 mphClear
7:55 AM44.6 °F32.0 °F61 %29.90 in7.0 miWSW (250°)10.4 mph19.6 mphClear
8:15 AM44.6 °F32.0 °F61 %29.90 in7.0 miWSW (240°)11.5 mph25.3 mphClear
8:35 AM46.4 °F32.0 °F57 %29.91 in7.0 miWSW (250°)9.2 mph20.7 mphClear
8:55 AM46.4 °F32.0 °F57 %29.93 in7.0 miWest (260°)11.5 mph19.6 mphClear
9:15 AM46.4 °F32.0 °F57 %29.94 in7.0 miWest (260°)11.5 mph18.4 mphClear
9:35 AM46.4 °F32.0 °F57 %29.95 in7.0 miWest (260°)8.1 mph18.4 mphClear
9:55 AM48.2 °F32.0 °F54 %29.96 in5.0 miWest (270°)11.5 mph16.1 mphHaze
10:15 AM48.2 °F32.0 °F54 %29.96 in7.0 miWest (260°)11.5 mph18.4 mphClear
10:35 AM48.2 °F32.0 °F54 %29.96 in7.0 miWest (270°)9.2 mph18.4 mphClear
10:55 AM48.2 °F32.0 °F54 %29.96 in7.0 miWest (260°)8.1 mph20.7 mphClear
11:15 AM50.0 °F32.0 °F50 %29.97 in7.0 miWest (270°)11.5 mph19.6 mphClear
11:35 AM50.0 °F30.2 °F47 %29.97 in7.0 miWest (260°)8.1 mph17.3 mphClear
11:55 AM51.8 °F32.0 °F47 %29.96 in5.0 miWSW (250°)10.4 mphHaze
12:15 PM51.8 °F30.2 °F44 %29.96 in5.0 miWSW (240°)11.5 mphHaze
12:35 PM51.8 °F30.2 °F44 %29.96 in7.0 miWest (260°)10.4 mph17.3 mphClear
1:15 PM53.6 °F28.4 °F38 %29.94 in7.0 miWest (260°)11.5 mph21.9 mphClear
1:35 PM53.6 °F28.4 °F38 %29.94 in5.0 miWest (270°)10.4 mph16.1 mphHaze
1:55 PM53.6 °F28.4 °F38 %29.94 in7.0 miWSW (250°)8.1 mph18.4 mphClear
2:15 PM53.6 °F26.6 °F35 %29.94 in7.0 miWSW (240°)8.1 mph23.0 mphClear
2:35 PM53.6 °F26.6 °F35 %29.94 in7.0 miWest (260°)9.2 mph25.3 mphClear
2:55 PM55.4 °F26.6 °F33 %29.95 in5.0 miWest (260°)10.4 mph19.6 mphHaze
3:15 PM55.4 °F24.8 °F31 %29.95 in7.0 miWest (260°)10.4 mph21.9 mphClear
3:35 PM53.6 °F23.0 °F30 %29.96 in7.0 miWest (260°)12.7 mph27.6 mphClear
4:15 PM53.6 °F23.0 °F30 %29.97 in7.0 miWSW (250°)6.9 mph16.1 mphClear
4:35 PM53.6 °F23.0 °F30 %29.98 in5.0 miWest (270°)10.4 mph18.4 mphHaze
4:55 PM53.6 °F23.0 °F30 %29.99 in5.0 miWSW (250°)10.4 mph19.6 mphHaze
5:15 PM51.8 °F23.0 °F33 %30.01 in5.0 miWSW (250°)9.2 mph19.6 mphHaze
5:35 PM51.8 °F23.0 °F33 %30.01 in7.0 miWest (260°)5.8 mph16.1 mphClear
5:55 PM50.0 °F23.0 °F35 %30.03 in7.0 miWest (260°)5.8 mphClear
6:15 PM50.0 °F24.8 °F37 %30.04 in7.0 miCalmClear
6:35 PM48.2 °F24.8 °F40 %30.05 in7.0 miCalmClear
6:55 PM46.4 °F24.8 °F43 %30.06 in10.0 miWSW (250°)3.5 mphClear
7:15 PM44.6 °F26.6 °F49 %30.07 in7.0 miCalmClear
7:35 PM42.8 °F30.2 °F61 %30.08 in7.0 miCalmClear
7:55 PM41.0 °F32.0 °F70 %30.08 in7.0 miCalmClear
8:15 PM39.2 °F32.0 °F75 %30.08 in7.0 miCalmClear
8:35 PM39.2 °F32.0 °F75 %30.09 in7.0 miCalmClear
8:55 PM37.4 °F32.0 °F81 %30.09 in7.0 miCalmClear
9:15 PM37.4 °F32.0 °F81 %30.10 in7.0 miSW (220°)3.5 mphClear
9:35 PM41.0 °F28.4 °F61 %30.11 in7.0 miSSW (210°)3.5 mphClear
9:55 PM39.2 °F30.2 °F70 %30.12 in7.0 miSW (220°)4.6 mphClear
10:15 PM42.8 °F28.4 °F57 %30.13 in7.0 miSW (230°)4.6 mphClear
10:35 PM42.8 °F28.4 °F57 %30.13 in7.0 miSW (230°)4.6 mphClear
11:15 PM42.8 °F28.4 °F57 %30.13 in7.0 miSW (220°)4.6 mphClear
11:35 PM42.8 °F28.4 °F57 %30.13 in7.0 miSW (230°)4.6 mphClear
Hourly data recorded from KHYW, located miles away from Conway, South Carolina







STORIES FROM OUR PARTNERS